Location: ???????
(37.9763°N, 23.8889°E)
Time: 09:56:15
(UTC+00:00)

Cosmos 1536 Rocket - Pass Details

Date: 15 June 2024
Orbit: 601 x 629 km, 82.5° (Epoch: 22 July)

Event Time Altitude Azimuth Distance (km) Brightness Sun altitude
Exits shadow 00:49:51 44° 247° (WSW) 870 3.9 -19.9°
Maximum altitude 00:50:37 49° 280° (W) 807 3.9 -19.8°
Drops below altitude 10° 00:54:56 10° 356° (N) 2,004 6.9 -19.3°
Sets 00:57:14 0° 2° (N) 2,911 7.9 -19.0°
